This demonstration page uses our WeatherBlox Daily Observations layout. Learn more.

Left ArrowRight Arrow

Hourly Observations for March 30, 2015

Temp ( °F °C ) Dew Point ( °F °C ) Humidity (%) Winds ( mph kmh ) Pressure ( in mb ) Visibility ( mi km ) Precip ( " mm )
12:16 am 00:16 Mostly Cloudy 45 7 34 1 66 66 WSW 12 19 29.97 1015 10 16 N/A
12:36 am 00:36 Mostly Cloudy 46 8 34 1 62 62 WSW 13 20 29.97 1015 10 16 N/A
12:56 am 00:56 Mostly Cloudy 46 8 36 2 66 66 WSW 13 20 30.00 1016 10 16 N/A
1:16 am 01:16 Cloudy 46 8 36 2 66 66 W 22 35 30.00 1016 10 16 N/A
1:36 am 01:36 Mostly Cloudy 46 8 34 1 62 62 WNW 23 37 30.00 1016 10 16 N/A
1:56 am 01:56 Partly Cloudy 45 7 32 undefined 61 61 NW 14 22 30.03 1017 10 16 N/A
2:15 am 02:15 Partly Cloudy 45 7 28 -2 53 53 WNW 16 26 30.03 1017 10 16 N/A
2:36 am 02:36 Clear 43 6 27 -3 53 53 NW 13 20 30.03 1017 10 16 N/A
2:56 am 02:56 Clear 41 5 27 -3 57 57 WNW 9 15 30.03 1017 10 16 N/A
3:15 am 03:15 Clear 39 4 27 -3 61 61 WNW 7 11 30.03 1017 10 16 N/A
3:36 am 03:36 Clear 37 3 27 -3 65 65 W 7 11 30.03 1017 10 16 N/A
3:56 am 03:56 Clear 36 2 27 -3 70 70 W 7 11 30.06 1018 10 16 N/A
4:15 am 04:15 Clear 36 2 27 -3 70 70 W 8 13 30.06 1018 10 16 N/A
4:36 am 04:36 Clear 34 1 27 -3 75 75 W 7 11 30.06 1018 10 16 N/A
4:56 am 04:56 Clear 36 2 28 -2 75 75 W 7 11 30.06 1018 10 16 N/A
5:15 am 05:15 Clear 36 2 28 -2 75 75 WNW 7 11 30.06 1018 10 16 N/A
5:36 am 05:36 Clear 34 1 27 -3 75 75 WNW 8 13 30.06 1018 10 16 N/A
5:56 am 05:56 Clear 34 1 28 -2 81 81 W 8 13 30.06 1018 10 16 N/A
6:15 am 06:15 Clear 34 1 32 undefined 93 93 W 8 13 30.06 1018 10 16 N/A
6:36 am 06:36 Clear 34 1 28 -2 81 81 W 8 13 30.06 1018 10 16 N/A
6:56 am 06:56 Clear 34 1 28 -2 81 81 W 9 15 30.06 1018 10 16 N/A
7:15 am 07:15 Clear 34 1 28 -2 81 81 W 9 15 30.09 1019 10 16 N/A
7:36 am 07:36 Sunny 34 1 28 -2 81 81 W 8 13 30.09 1019 10 16 N/A
7:56 am 07:56 Sunny 34 1 28 -2 81 81 W 8 13 30.09 1019 10 16 N/A
8:15 am 08:15 Sunny 36 2 28 -2 75 75 W 8 13 30.12 1020 10 16 N/A
8:36 am 08:36 Sunny 37 3 28 -2 70 70 W 8 13 30.12 1020 10 16 N/A
8:56 am 08:56 Sunny 39 4 28 -2 65 65 W 8 13 30.09 1019 10 16 N/A
9:15 am 09:15 Sunny 41 5 28 -2 61 61 W 10 17 30.12 1020 10 16 N/A
9:36 am 09:36 Sunny 43 6 28 -2 57 57 WNW 10 17 30.12 1020 10 16 N/A
9:56 am 09:56 Sunny 45 7 27 -3 49 49 WNW 12 19 30.12 1020 10 16 N/A
10:16 am 10:16 Sunny 46 8 25 -4 43 43 WNW 9 15 30.12 1020 10 16 N/A
10:36 am 10:36 Sunny 46 8 25 -4 43 43 WNW 10 17 30.15 1021 10 16 N/A
10:55 am 10:55 Sunny 48 9 25 -4 40 40 WNW 12 19 30.15 1021 10 16 N/A
11:16 am 11:16 Sunny 50 10 23 -5 35 35 NW 12 19 30.15 1021 10 16 N/A
11:36 am 11:36 Sunny 50 10 21 -6 32 32 WNW 12 19 30.15 1021 10 16 N/A
11:55 am 11:55 Sunny 52 11 19 -7 28 28 NW 14 22 30.15 1021 10 16 N/A
12:16 pm 12:16 Sunny 52 11 19 -7 28 28 WNW 13 20 30.15 1021 10 16 N/A
12:36 pm 12:36 Sunny 54 12 16 -9 22 22 WNW 14 22 30.15 1021 10 16 N/A
12:55 pm 12:55 Sunny 55 13 16 -9 21 21 WNW 14 22 30.12 1020 10 16 N/A
1:16 pm 13:16 Sunny 55 13 14 -10 19 19 W 13 20 30.12 1020 10 16 N/A
1:35 pm 13:35 Sunny 55 13 14 -10 19 19 W 12 19 30.12 1020 10 16 N/A
1:56 pm 13:56 Sunny 57 14 14 -10 18 18 W 14 22 30.12 1020 10 16 N/A
2:16 pm 14:16 Sunny 57 14 14 -10 18 18 WNW 15 24 30.09 1019 10 16 N/A
2:35 pm 14:35 Sunny 57 14 14 -10 18 18 NW 18 30 30.09 1019 10 16 N/A
2:56 pm 14:56 Sunny 59 15 16 -9 18 18 W 17 28 30.09 1019 10 16 N/A
3:16 pm 15:16 Sunny 59 15 14 -10 17 17 W 17 28 30.06 1018 10 16 N/A
3:36 pm 15:36 Sunny 59 15 14 -10 17 17 WNW 14 22 30.06 1018 10 16 N/A
3:56 pm 15:56 Sunny 59 15 14 -10 17 17 WNW 21 33 30.06 1018 10 16 N/A
4:16 pm 16:16 Sunny 59 15 14 -10 17 17 WNW 16 26 30.06 1018 10 16 N/A
4:36 pm 16:36 Sunny 59 15 16 -9 18 18 WNW 14 22 30.06 1018 10 16 N/A
4:56 pm 16:56 Sunny 59 15 14 -10 17 17 WNW 16 26 30.06 1018 10 16 N/A
5:15 pm 17:15 Sunny 57 14 14 -10 18 18 WNW 16 26 30.06 1018 10 16 N/A
5:36 pm 17:36 Partly Cloudy 57 14 16 -9 20 20 W 17 28 30.03 1017 10 16 N/A
5:56 pm 17:56 Partly Cloudy 57 14 19 -7 23 23 WSW 12 19 30.03 1017 10 16 N/A
6:15 pm 18:15 Sunny 57 14 19 -7 23 23 W 17 28 30.03 1017 10 16 N/A
6:36 pm 18:36 Sunny 57 14 19 -7 23 23 W 14 22 30.03 1017 10 16 N/A
6:56 pm 18:56 Sunny 59 15 18 -8 20 20 W 9 15 30.03 1017 10 16 N/A
7:15 pm 19:15 Sunny 55 13 19 -7 24 24 W 9 15 30.03 1017 10 16 N/A
7:36 pm 19:36 Sunny 55 13 23 -5 28 28 WSW 7 11 30.00 1016 10 16 N/A
7:56 pm 19:56 Sunny 55 13 21 -6 26 26 WSW 8 13 30.00 1016 10 16 N/A
8:15 pm 20:15 Clear 54 12 23 -5 30 30 SW 7 11 30.00 1016 10 16 N/A
8:36 pm 20:36 Clear 54 12 25 -4 33 33 SW 6 9 30.00 1016 10 16 N/A
8:56 pm 20:56 Clear 52 11 23 -5 32 32 SSW 7 11 30.03 1017 10 16 N/A
9:15 pm 21:15 Clear 52 11 23 -5 32 32 SSW 6 9 30.03 1017 10 16 N/A
9:36 pm 21:36 Clear 52 11 23 -5 32 32 SSW 7 11 30.06 1018 10 16 N/A
9:56 pm 21:56 Clear 52 11 23 -5 32 32 SSW 7 11 30.06 1018 10 16 N/A
10:15 pm 22:15 Clear 50 10 23 -5 35 35 SSW 7 11 30.06 1018 10 16 N/A
10:36 pm 22:36 Clear 50 10 23 -5 35 35 SSW 7 11 30.03 1017 10 16 N/A
10:56 pm 22:56 Clear 50 10 23 -5 35 35 SSW 8 13 30.03 1017 10 16 N/A
11:16 pm 23:16 Clear 48 9 23 -5 37 37 SSW 8 13 30.03 1017 10 16 N/A
11:36 pm 23:36 Clear 48 9 23 -5 37 37 SSW 7 11 30.03 1017 10 16 N/A
11:55 pm 23:55 Clear 48 9 23 -5 37 37 SSW 9 15 30.03 1017 10 16 N/A

Powered by AerisWeather